TimeCST,TemperatureF,Dew PointF,Humidity,Sea Level PressureIn,VisibilityMPH,Wind Direction,Wind SpeedMPH,Gust SpeedMPH,PrecipitationIn,Events,Conditions,WindDirDegrees,DateUTC
12:14 AM,19.4,12.2,74,30.06,10.0,SSW,3.5,-,N/A,,Overcast,200,2012-12-14 06:14:00
12:34 AM,19.4,12.2,74,30.06,10.0,South,5.8,-,N/A,,Overcast,190,2012-12-14 06:34:00
12:54 AM,19.4,12.2,74,30.06,7.0,South,5.8,-,N/A,,Overcast,180,2012-12-14 06:54:00
1:14 AM,19.4,14.0,80,30.06,10.0,South,4.6,-,N/A,,Mostly Cloudy,180,2012-12-14 07:14:00
1:34 AM,19.4,14.0,80,30.06,10.0,SSE,5.8,-,N/A,,Mostly Cloudy,160,2012-12-14 07:34:00
1:54 AM,19.4,14.0,80,30.05,10.0,SSE,5.8,-,N/A,,Mostly Cloudy,160,2012-12-14 07:54:00
2:14 AM,19.4,14.0,80,30.05,5.0,SSE,4.6,-,N/A,,Haze,160,2012-12-14 08:14:00
2:34 AM,19.4,15.8,86,30.05,4.0,SSE,4.6,-,N/A,Snow,Light Snow,160,2012-12-14 08:34:00
2:54 AM,19.4,15.8,86,30.05,5.0,SSE,6.9,-,N/A,Snow,Light Snow,150,2012-12-14 08:54:00
3:14 AM,19.4,15.8,86,30.04,10.0,SSE,5.8,-,N/A,,Mostly Cloudy,150,2012-12-14 09:14:00
3:34 AM,19.4,15.8,86,30.04,10.0,SE,5.8,-,N/A,,Mostly Cloudy,140,2012-12-14 09:34:00
3:55 AM,21.2,15.8,80,30.03,10.0,SE,5.8,-,N/A,,Mostly Cloudy,130,2012-12-14 09:55:00
4:14 AM,21.2,15.8,80,30.02,7.0,SE,8.1,-,N/A,,Overcast,130,2012-12-14 10:14:00
4:34 AM,21.2,15.8,80,30.01,10.0,SE,6.9,-,N/A,,Mostly Cloudy,140,2012-12-14 10:34:00
4:54 AM,21.2,15.8,80,30.00,10.0,SE,8.1,-,N/A,,Mostly Cloudy,140,2012-12-14 10:54:00
5:14 AM,21.2,17.6,86,30.00,5.0,SSE,10.4,-,N/A,,Haze,150,2012-12-14 11:14:00
5:34 AM,21.2,17.6,86,30.00,4.0,SSE,6.9,-,N/A,Snow,Light Snow,150,2012-12-14 11:34:00
5:54 AM,23.0,17.6,80,30.00,7.0,SSE,9.2,-,N/A,,Mostly Cloudy,160,2012-12-14 11:54:00
6:14 AM,24.8,19.4,80,29.99,10.0,SSE,8.1,-,N/A,,Mostly Cloudy,160,2012-12-14 12:14:00
6:34 AM,24.8,19.4,80,29.99,2.5,SSE,6.9,-,N/A,Snow,Light Snow,160,2012-12-14 12:34:00
6:54 AM,24.8,19.4,80,29.99,10.0,SSE,9.2,-,N/A,,Overcast,150,2012-12-14 12:54:00
7:14 AM,24.8,19.4,80,29.99,7.0,SSE,11.5,-,N/A,,Overcast,150,2012-12-14 13:14:00
7:34 AM,24.8,19.4,80,29.99,10.0,South,15.0,-,N/A,,Overcast,170,2012-12-14 13:34:00
7:54 AM,24.8,19.4,80,29.99,10.0,SSE,9.2,-,N/A,,Overcast,160,2012-12-14 13:54:00
8:14 AM,23.0,19.4,86,29.99,10.0,SSE,11.5,-,N/A,,Overcast,160,2012-12-14 14:14:00
8:34 AM,23.0,17.6,80,29.99,10.0,SSE,10.4,-,N/A,,Overcast,150,2012-12-14 14:34:00
8:54 AM,23.0,17.6,80,29.99,10.0,SSE,9.2,-,N/A,,Overcast,150,2012-12-14 14:54:00
9:14 AM,21.2,17.6,86,29.99,10.0,SE,5.8,-,N/A,,Scattered Clouds,130,2012-12-14 15:14:00
9:34 AM,21.2,17.6,86,29.99,10.0,SE,9.2,-,N/A,,Clear,140,2012-12-14 15:34:00
9:54 AM,21.2,17.6,86,29.99,10.0,SE,8.1,-,N/A,,Clear,130,2012-12-14 15:54:00
10:14 AM,21.2,17.6,86,29.98,10.0,SE,5.8,-,N/A,,Clear,130,2012-12-14 16:14:00
10:34 AM,21.2,15.8,80,29.98,10.0,ESE,8.1,-,N/A,,Clear,120,2012-12-14 16:34:00
10:54 AM,21.2,17.6,86,29.98,10.0,SE,6.9,-,N/A,,Clear,130,2012-12-14 16:54:00
11:14 AM,23.0,17.6,80,29.97,10.0,SE,6.9,-,N/A,,Clear,130,2012-12-14 17:14:00
11:34 AM,24.8,17.6,74,29.96,10.0,SE,8.1,-,N/A,,Clear,140,2012-12-14 17:34:00
11:54 AM,24.8,17.6,74,29.95,10.0,SSE,6.9,-,N/A,,Clear,150,2012-12-14 17:54:00
12:14 PM,26.6,17.6,69,29.93,10.0,SSE,6.9,-,N/A,,Clear,150,2012-12-14 18:14:00
12:34 PM,26.6,17.6,69,29.92,10.0,SE,8.1,-,N/A,,Clear,130,2012-12-14 18:34:00
12:54 PM,28.4,19.4,69,29.90,10.0,SE,8.1,-,N/A,,Clear,130,2012-12-14 18:54:00
1:14 PM,30.2,19.4,64,29.88,10.0,ESE,6.9,-,N/A,,Clear,120,2012-12-14 19:14:00
1:34 PM,30.2,21.2,69,29.86,10.0,SE,9.2,-,N/A,,Clear,140,2012-12-14 19:34:00
1:54 PM,32.0,21.2,64,29.85,10.0,Calm,Calm,-,N/A,,Clear,130,2012-12-14 19:54:00
2:14 PM,30.2,21.2,69,29.85,10.0,SE,6.9,-,N/A,,Clear,140,2012-12-14 20:14:00
2:35 PM,32.0,21.2,64,29.84,10.0,SE,9.2,-,N/A,,Clear,130,2012-12-14 20:35:00
2:54 PM,32.0,21.2,64,29.84,10.0,SE,9.2,-,N/A,,Clear,140,2012-12-14 20:54:00
3:14 PM,32.0,21.2,64,29.83,10.0,SE,8.1,-,N/A,,Clear,130,2012-12-14 21:14:00
3:34 PM,30.2,21.2,69,29.83,10.0,SE,8.1,-,N/A,,Clear,140,2012-12-14 21:34:00
4:14 PM,28.4,19.4,69,29.82,10.0,SE,8.1,-,N/A,,Clear,140,2012-12-14 22:14:00
4:34 PM,28.4,19.4,69,29.82,10.0,SE,9.2,-,N/A,,Clear,140,2012-12-14 22:34:00
4:54 PM,28.4,19.4,69,29.81,10.0,SE,8.1,-,N/A,,Clear,140,2012-12-14 22:54:00
5:14 PM,26.6,19.4,74,29.81,10.0,SE,8.1,-,N/A,,Clear,140,2012-12-14 23:14:00
5:34 PM,26.6,19.4,74,29.80,10.0,SE,9.2,-,N/A,,Clear,140,2012-12-14 23:34:00
5:54 PM,26.6,19.4,74,29.80,10.0,SSE,10.4,-,N/A,,Clear,150,2012-12-14 23:54:00
6:14 PM,26.6,19.4,74,29.80,10.0,SSE,9.2,-,N/A,,Clear,150,2012-12-15 00:14:00
6:34 PM,26.6,19.4,74,29.79,10.0,SE,9.2,-,N/A,,Clear,140,2012-12-15 00:34:00
6:54 PM,26.6,19.4,74,29.79,10.0,SSE,10.4,-,N/A,,Clear,150,2012-12-15 00:54:00
7:14 PM,26.6,19.4,74,29.78,10.0,SE,10.4,-,N/A,,Clear,140,2012-12-15 01:14:00
7:34 PM,26.6,19.4,74,29.78,10.0,SSE,11.5,-,N/A,,Clear,150,2012-12-15 01:34:00
7:54 PM,28.4,19.4,69,29.78,10.0,SSE,16.1,-,N/A,,Clear,160,2012-12-15 01:54:00
8:14 PM,28.4,19.4,69,29.78,10.0,SSE,15.0,20.7,N/A,,Clear,160,2012-12-15 02:14:00
8:35 PM,26.6,19.4,74,29.77,10.0,SSE,18.4,23.0,N/A,,Clear,160,2012-12-15 02:35:00
8:54 PM,26.6,19.4,74,29.78,10.0,SSE,17.3,-,N/A,,Clear,160,2012-12-15 02:54:00
9:14 PM,26.6,19.4,74,29.77,10.0,SSE,15.0,-,N/A,,Clear,150,2012-12-15 03:14:00
9:35 PM,26.6,19.4,74,29.77,10.0,SSE,13.8,19.6,N/A,,Clear,160,2012-12-15 03:35:00
9:54 PM,26.6,19.4,74,29.78,10.0,South,13.8,19.6,N/A,,Clear,170,2012-12-15 03:54:00
10:14 PM,26.6,19.4,74,29.78,10.0,South,11.5,-,N/A,,Clear,170,2012-12-15 04:14:00
10:35 PM,26.6,19.4,74,29.77,10.0,SSE,12.7,18.4,N/A,,Clear,160,2012-12-15 04:35:00
10:54 PM,26.6,19.4,74,29.77,10.0,SSE,16.1,-,N/A,,Clear,160,2012-12-15 04:54:00
11:14 PM,24.8,19.4,80,29.77,10.0,SSE,9.2,-,N/A,,Clear,160,2012-12-15 05:14:00
11:35 PM,24.8,17.6,74,29.77,10.0,SSE,8.1,-,N/A,,Clear,160,2012-12-15 05:35:00
11:54 PM,21.2,15.8,80,29.77,10.0,SE,3.5,-,N/A,,Clear,140,2012-12-15 05:54:00